N3HBJ Weather Reports


Display with metric or nautical units.
time (UTC)temp
F
wind
direction
speed
MPH
gust
MPH
rain 1hr
in
rain 24hr
in
rain mn
in
humidity
%
barometer
mb
20260504022204 41 161 0.0 0.0 0.00 0.00 0.00 75 1013.6
20260504021706 41 161 0.0 0.0 0.00 0.00 0.00 74 1013.6
20260504021203 41 161 0.0 0.0 0.00 0.00 0.00 73 1013.5
20260504020923 42 161 0.0 0.0 0.00 0.00 0.00 73 1013.5
20260504020200 42 161 0.0 0.0 0.00 0.00 0.00 72 1013.5
20260504015920 42 161 0.0 0.0 0.00 0.00 0.00 72 1013.4
20260504015156 43 161 0.0 0.0 0.00 0.00 0.00 70 1013.5
20260504014657 43 161 0.0 0.0 0.00 0.00 0.00 69 1013.4
20260504014640 44 161 0.0 0.0 0.00 0.00 0.00 68 1013.4
20260504013914 44 161 0.0 0.0 0.00 0.00 0.00 65 1013.4
20260504013414 45 161 0.0 0.0 0.00 0.00 0.00 67 1013.3
20260504012653 45 161 0.0 0.0 0.00 0.00 0.00 66 1013.4
20260504012152 45 161 0.0 0.0 0.00 0.00 0.00 62 1013.1
20260504011916 46 161 0.0 0.0 0.00 0.00 0.00 60 1013.1
20260504011151 46 161 0.0 0.0 0.00 0.00 0.00 60 1013.1
20260504010914 47 161 0.0 0.0 0.00 0.00 0.00 57 1013.1
20260504010147 47 161 0.0 0.0 0.00 0.00 0.00 57 1013.0
20260504005644 48 161 0.0 0.0 0.00 0.00 0.00 55 1013.1
20260504005145 48 161 0.0 0.0 0.00 0.00 0.00 54 1013.1
20260504005129 49 161 0.0 0.0 0.00 0.00 0.00 53 1013.1
20260504004143 49 161 0.0 0.0 0.00 0.00 0.00 51 1013.0
20260504003642 50 161 0.0 0.0 0.00 0.00 0.00 51 1013.0
20260504003139 50 161 0.0 0.0 0.00 0.00 0.00 50 1012.9
20260504002640 51 161 0.0 0.0 0.00 0.00 0.00 47 1012.9
20260504002139 51 161 0.0 0.0 0.00 0.00 0.00 46 1012.8
20260504001636 52 161 0.0 0.0 0.00 0.00 0.00 45 1012.8
20260504001138 52 161 0.0 0.0 0.00 0.00 0.00 44 1012.8
20260504000638 52 161 0.0 5.0 0.00 0.00 0.00 44 1012.8
20260504000627 53 161 0.0 5.0 0.00 0.00 0.00 44 1012.7
20260503235637 53 120 0.0 3.0 0.00 0.00 0.00 42 1012.8
20260503235139 53 129 0.0 3.0 0.00 0.00 0.00 42 1012.8
20260503234639 53 124 0.0 5.0 0.00 0.00 0.00 42 1012.7
20260503234136 54 109 0.0 5.0 0.00 0.00 0.00 41 1012.7
20260503233635 54 100 1.0 8.0 0.00 0.01 0.00 40 1012.8
20260503233133 54 132 1.0 8.0 0.00 0.01 0.00 40 1012.8
20260503232629 54 152 1.0 9.0 0.00 0.01 0.00 40 1012.8
20260503232129 55 227 2.0 9.0 0.00 0.01 0.00 39 1012.8
20260503231632 55 191 2.0 13.0 0.00 0.01 0.00 39 1012.8
20260503231353 55 105 2.0 13.0 0.00 0.01 0.00 39 1012.8
20260503230628 55 131 3.0 12.0 0.00 0.01 0.00 38 1012.8
20260503230127 55 128 2.0 10.0 0.00 0.01 0.00 38 1012.8
20260503225625 55 202 1.0 7.0 0.00 0.01 0.00 39 1012.8
20260503225126 55 323 1.0 8.0 0.00 0.01 0.00 40 1012.9
20260503224626 55 155 2.0 11.0 0.00 0.01 0.00 41 1012.7
20260503224128 55 209 2.0 14.0 0.00 0.01 0.00 38 1012.6
20260503223626 56 74 2.0 14.0 0.00 0.01 0.00 37 1012.7
20260503223127 56 117 1.0 14.0 0.00 0.01 0.00 39 1012.7
20260503222626 56 193 1.0 6.0 0.00 0.01 0.00 38 1012.6
20260503222615 56 130 1.0 7.0 0.00 0.01 0.00 41 1012.7
20260503221625 55 129 2.0 11.0 0.00 0.01 0.00 40 1012.7
20260503221351 56 205 3.0 12.0 0.00 0.01 0.00 38 1012.8
20260503220628 56 156 2.0 12.0 0.00 0.01 0.00 38 1012.9
20260503220125 56 128 3.0 10.0 0.00 0.01 0.00 38 1012.9
20260503220112 56 162 4.0 14.0 0.00 0.01 0.00 37 1012.9
20260503215125 55 156 4.0 14.0 0.00 0.01 0.00 39 1012.9
20260503214628 55 115 3.0 11.0 0.00 0.01 0.00 39 1012.9
20260503214128 56 129 3.0 14.0 0.00 0.01 0.00 39 1012.9
20260503213625 56 86 3.0 14.0 0.00 0.01 0.00 37 1012.9
20260503213125 57 132 2.0 10.0 0.00 0.01 0.00 39 1012.8
20260503212625 56 355 5.0 13.0 0.00 0.01 0.00 39 1012.8
20260503212125 56 146 6.0 16.0 0.00 0.01 0.00 37 1012.8
20260503211625 56 135 5.0 16.0 0.00 0.01 0.00 37 1012.7
20260503211345 56 130 4.0 14.0 0.00 0.01 0.00 40 1012.8
20260503210626 55 113 3.0 15.0 0.00 0.01 0.00 39 1012.7
20260503210129 55 180 3.0 17.0 0.00 0.01 0.00 39 1012.8
20260503205627 55 148 4.0 17.0 0.00 0.01 0.00 38 1012.8
20260503205126 55 166 3.0 12.0 0.00 0.01 0.00 38 1012.8
20260503204626 55 194 4.0 13.0 0.00 0.01 0.00 40 1012.8
20260503204338 56 74 4.0 15.0 0.00 0.01 0.00 37 1012.8
20260503204331 55 51 4.0 13.0 0.00 0.01 0.00 38 1012.8
20260503203125 55 184 4.0 15.0 0.00 0.01 0.00 39 1012.8
20260503202625 55 213 4.0 13.0 0.00 0.01 0.00 39 1012.9
20260503202125 55 182 4.0 11.0 0.00 0.01 0.00 40 1012.9
20260503201623 55 155 4.0 14.0 0.00 0.01 0.00 37 1013.0
20260503201125 56 111 4.0 17.0 0.00 0.01 0.00 38 1013.0
20260503200622 56 158 3.0 17.0 0.00 0.01 0.00 39 1013.0
20260503200119 55 166 3.0 10.0 0.00 0.01 0.00 38 1013.1
20260503195619 55 45 3.0 11.0 0.00 0.01 0.00 40 1013.4
20260503195118 55 190 2.0 11.0 0.00 0.01 0.00 38 1013.3
20260503195100 55 177 2.0 9.0 0.00 0.01 0.00 38 1013.4
20260503194115 55 156 4.0 12.0 0.00 0.01 0.00 38 1013.5
20260503193616 55 157 5.0 13.0 0.00 0.01 0.00 40 1013.6
20260503193115 55 209 3.0 13.0 0.00 0.01 0.00 36 1013.6
20260503192614 56 216 2.0 9.0 0.00 0.01 0.00 38 1013.5
20260503192333 56 153 3.0 9.0 0.00 0.01 0.00 38 1013.5
20260503191614 56 272 2.0 9.0 0.00 0.01 0.00 37 1013.7
20260503191338 56 124 2.0 7.0 0.00 0.01 0.00 37 1013.7
20260503190616 56 264 2.0 8.0 0.00 0.01 0.00 40 1013.8
20260503190111 55 59 3.0 11.0 0.00 0.01 0.00 40 1013.8
20260503185610 55 202 3.0 12.0 0.00 0.01 0.00 37 1013.9
20260503185109 55 176 4.0 12.0 0.00 0.01 0.00 38 1014.0
20260503184611 55 102 4.0 12.0 0.00 0.01 0.00 39 1014.1
20260503184109 55 242 5.0 14.0 0.00 0.01 0.00 37 1014.0
20260503183610 55 204 4.0 14.0 0.00 0.01 0.00 39 1014.2
20260503183109 55 184 4.0 13.0 0.00 0.01 0.00 41 1014.1
20260503182837 55 211 5.0 13.0 0.00 0.01 0.00 39 1014.3
20260503182332 55 212 3.0 13.0 0.00 0.01 0.00 38 1014.3
20260503181607 55 231 2.0 11.0 0.00 0.01 0.00 39 1014.1
20260503181109 54 98 2.0 11.0 0.00 0.01 0.00 39 1014.1
20260503180605 53 189 2.0 9.0 0.00 0.01 0.00 38 1014.1
20260503180105 53 123 2.0 10.0 0.00 0.01 0.00 41 1014.2
20260503175608 53 203 3.0 10.0 0.00 0.01 0.00 40 1014.2
20260503175101 54 171 3.0 13.0 0.00 0.01 0.00 39 1014.3
20260503174600 54 166 3.0 13.0 0.00 0.01 0.00 42 1014.3
20260503174056 53 187 3.0 12.0 0.00 0.01 0.00 41 1014.3
20260503173557 53 117 3.0 14.0 0.00 0.01 0.00 39 1014.4
20260503173057 52 218 2.0 14.0 0.00 0.01 0.00 41 1014.4
20260503172556 52 80 1.0 10.0 0.00 0.01 0.00 42 1014.3
20260503172108 52 201 3.0 11.0 0.00 0.01 0.00 41 1014.3
20260503171817 52 140 3.0 11.0 0.00 0.01 0.00 40 1014.4
20260503171053 52 167 2.0 8.0 0.00 0.01 0.00 41 1014.5
20260503170818 52 166 2.0 8.0 0.00 0.01 0.00 41 1014.5
20260503170108 52 186 3.0 10.0 0.00 0.01 0.00 42 1014.6
20260503150539 49 166 2.0 15.0 0.00 0.01 0.00 46 1015.7
20260503150531 48 227 4.0 15.0 0.00 0.01 0.00 52 1015.7
20260503131030 42 190 3.0 10.0 0.00 0.01 0.00 64 1016.0
20260503130525 42 167 2.0 9.0 0.00 0.01 0.00 64 1015.9
20260503110512 29 182 0.0 0.0 0.00 0.01 0.00 88 1015.5
20260503090439 31 181 0.0 0.0 0.00 0.01 0.00 83 1014.6
20260503081428 33 181 0.0 0.0 0.00 0.01 0.00 79 1014.5
20260503080926 33 181 0.0 0.0 0.00 0.01 0.00 79 1014.5
20260503080428 33 181 0.0 0.0 0.00 0.01 0.00 79 1014.5
20260503072922 34 181 0.0 0.0 0.00 0.01 0.00 80 1014.2
20260503072422 34 181 0.0 0.0 0.00 0.01 0.00 80 1014.2
20260503072147 34 181 0.0 0.0 0.00 0.01 0.00 79 1014.2
20260503071421 34 181 0.0 0.0 0.00 0.01 0.00 80 1014.2
20260503070921 34 181 0.0 0.0 0.00 0.01 0.00 79 1014.2
20260503070422 34 181 0.0 0.0 0.00 0.01 0.00 78 1014.2
20260503054921 35 181 0.0 0.0 0.00 0.01 0.00 74 1014.3
20260503054421 35 181 0.0 0.0 0.00 0.01 0.00 74 1014.2
20260503053921 35 181 0.0 0.0 0.00 0.01 0.00 72 1014.3
20260503053422 35 181 0.0 0.0 0.00 0.01 0.00 73 1014.3
20260503052922 35 181 0.0 0.0 0.00 0.01 0.00 73 1014.4
20260503052640 36 181 0.0 0.0 0.00 0.01 0.00 72 1014.4
20260503052143 36 181 0.0 2.0 0.00 0.01 0.00 72 1014.4
20260503051421 36 176 0.0 2.0 0.00 0.01 0.00 72 1014.5
20260503050922 36 176 0.0 0.0 0.00 0.01 0.00 73 1014.5
20260503050422 36 176 0.0 0.0 0.00 0.01 0.00 72 1014.5
20260503045922 37 176 0.0 0.0 0.00 0.01 0.00 72 1014.5
20260503045421 37 176 0.0 0.0 0.00 0.01 0.00 71 1014.5
20260503044922 37 176 0.0 0.0 0.00 0.01 0.00 70 1014.5
20260503044421 37 176 0.0 0.0 0.00 0.01 0.00 70 1014.5
20260503044142 38 176 0.0 1.0 0.00 0.01 0.00 69 1014.5
20260503043422 38 176 0.0 3.0 0.00 0.01 0.00 70 1014.5
20260503042920 38 176 0.0 3.0 0.00 0.01 0.00 69 1014.5
20260503042415 38 117 0.0 2.0 0.00 0.01 0.00 70 1014.5
20260503041908 38 117 0.0 2.0 0.00 0.01 0.00 70 1014.5
20260503041405 38 115 0.0 1.0 0.00 0.01 0.00 71 1014.6
20260503040859 38 115 0.0 1.0 0.00 0.01 0.00 70 1014.6
20260503040615 38 115 0.0 0.0 0.00 0.01 0.00 69 1014.6
20260503035846 38 115 0.0 0.0 0.00 0.01 0.01 71 1014.6
20260503035341 38 115 0.0 0.0 0.00 0.01 0.01 70 1014.6
20260503034833 38 115 0.0 0.0 0.00 0.02 0.01 70 1014.6
20260503034328 38 115 0.0 1.0 0.00 0.02 0.01 70 1014.5
20260503033821 38 115 0.0 1.0 0.00 0.02 0.01 70 1014.6
20260503033319 38 115 0.0 0.0 0.00 0.02 0.01 70 1014.6
20260503032810 38 115 0.0 0.0 0.00 0.02 0.01 70 1014.6
20260503032317 38 115 0.0 0.0 0.00 0.02 0.01 69 1014.7
20260503031759 39 115 0.0 0.0 0.00 0.02 0.01 70 1014.7
20260503031253 39 115 0.0 0.0 0.00 0.02 0.01 70 1014.8
20260503030747 39 115 0.0 0.0 0.00 0.02 0.01 72 1014.8
20260503030247 39 115 0.0 0.0 0.00 0.02 0.01 71 1014.9
20260503025747 39 115 0.0 0.0 0.00 0.02 0.01 71 1014.8
20260503025244 39 115 0.0 0.0 0.00 0.02 0.01 69 1014.8
20260503024745 39 115 0.0 0.0 0.00 0.02 0.01 69 1014.8
20260503024254 39 115 0.0 0.0 0.00 0.02 0.01 71 1014.9
20260503024001 39 115 0.0 2.0 0.00 0.02 0.01 70 1014.9
20260503023236 39 115 0.0 2.0 0.00 0.02 0.01 70 1015.0
20260503022735 39 113 0.0 0.0 0.00 0.03 0.01 73 1015.0